AMQ716 EPKT-LGIR

Flight info

Callsign AMQ716
Flight time 2h 11m
Altitude 35000
Route BABKO DCT LITKU DCT LAHOR DCT PARAK DCT OSVIX DCT RAXAD DCT MAKED UL617 MIL UM749 EPALO
Aircraft A321/M-SDE3FGHIRWY/LB1

Departure

Time 2026-04-28 15:29
Airport Katowice Wojciech Korfanty International Airport (EPKT)

Arrival

Time 2026-04-28 17:41
Airport Heraklion International Nikos Kazantzakis Airport (LGIR)
Time Latitude Longitude Altitude Speed Heading
2026-04-28 15:13 50.47154 19.07898 1026 ft 0 kts 180°
2026-04-28 15:21 50.47161 19.07898 1004 ft 4 kts 180°
2026-04-28 15:21 50.47187 19.07898 999 ft 4 kts 181°
2026-04-28 15:22 50.47214 19.07901 998 ft 4 kts 195°
2026-04-28 15:22 50.47233 19.07916 998 ft 4 kts 261°
2026-04-28 15:22 50.47233 19.07929 1000 ft 0 kts 270°
2026-04-28 15:24 50.47233 19.07923 998 ft 4 kts 270°
2026-04-28 15:24 50.47234 19.07779 1003 ft 18 kts 270°
2026-04-28 15:24 50.47234 19.07588 1000 ft 17 kts 270°
2026-04-28 15:25 50.47235 19.07405 1000 ft 16 kts 270°
2026-04-28 15:25 50.47235 19.07230 1003 ft 16 kts 270°
2026-04-28 15:25 50.47235 19.07065 1003 ft 15 kts 270°
2026-04-28 15:25 50.47236 19.06907 1003 ft 14 kts 270°
2026-04-28 15:26 50.47236 19.06758 1001 ft 13 kts 270°
2026-04-28 15:26 50.47267 19.06635 1003 ft 16 kts 334°
2026-04-28 15:26 50.47391 19.06623 1001 ft 18 kts 348°
2026-04-28 15:26 50.47428 19.06462 997 ft 17 kts 269°
2026-04-28 15:27 50.47428 19.06271 995 ft 18 kts 270°
2026-04-28 15:27 50.47429 19.06075 993 ft 16 kts 271°
2026-04-28 15:27 50.47496 19.05975 993 ft 13 kts 354°
2026-04-28 15:27 50.47522 19.05975 997 ft 2 kts
2026-04-28 15:28 50.47534 19.05975 996 ft 6 kts
2026-04-28 15:28 50.47602 19.06071 995 ft 19 kts 85°
2026-04-28 15:28 50.47603 19.06302 996 ft 32 kts 90°
2026-04-28 15:28 50.47602 19.07052 1001 ft 102 kts 90°
2026-04-28 15:29 50.47597 19.08461 1006 ft 153 kts 88°
2026-04-28 15:29 50.47596 19.10148 1587 ft 155 kts 87°
2026-04-28 15:29 50.47597 19.11285 2056 ft 159 kts 89°
2026-04-28 15:29 50.47622 19.13733 2785 ft 176 kts 87°
2026-04-28 15:30 50.47611 19.15779 3088 ft 199 kts 92°
2026-04-28 15:30 50.47366 19.17220 3232 ft 218 kts 114°
2026-04-28 15:30 50.46221 19.19012 3633 ft 250 kts 146°
2026-04-28 15:30 50.44687 19.20461 4384 ft 261 kts 148°
2026-04-28 15:31 50.43084 19.21882 5271 ft 267 kts 149°
2026-04-28 15:31 50.41437 19.23321 6078 ft 275 kts 150°
2026-04-28 15:31 50.39751 19.24798 6931 ft 281 kts 150°
2026-04-28 15:31 50.38027 19.26317 7736 ft 287 kts 150°
2026-04-28 15:32 50.36213 19.27662 8532 ft 292 kts 165°
2026-04-28 15:32 50.34201 19.28284 9320 ft 297 kts 172°
2026-04-28 15:32 50.32150 19.28824 10149 ft 301 kts 172°
2026-04-28 15:32 50.30039 19.29363 10653 ft 316 kts 173°
2026-04-28 15:33 50.27821 19.29922 10934 ft 335 kts 173°
2026-04-28 15:33 50.25497 19.30510 11558 ft 341 kts 172°
2026-04-28 15:33 50.23141 19.31114 12274 ft 345 kts 172°
2026-04-28 15:33 50.20755 19.31731 13009 ft 349 kts 172°
2026-04-28 15:34 50.18346 19.32357 13726 ft 353 kts 172°
2026-04-28 15:34 50.15911 19.32988 14423 ft 356 kts 173°
2026-04-28 15:34 50.13453 19.33622 15067 ft 360 kts 173°
2026-04-28 15:34 50.10967 19.34261 15715 ft 364 kts 173°
2026-04-28 15:35 50.08454 19.34908 16347 ft 367 kts 173°
2026-04-28 15:35 50.03367 19.36212 17637 ft 374 kts 173°
2026-04-28 15:35 50.00780 19.36873 18275 ft 378 kts 173°
2026-04-28 15:36 49.98175 19.37540 18849 ft 382 kts 173°
2026-04-28 15:36 49.95542 19.38215 19376 ft 385 kts 174°
2026-04-28 15:36 49.92884 19.38894 19872 ft 389 kts 174°
2026-04-28 15:36 49.90196 19.39578 20393 ft 393 kts 174°
2026-04-28 15:37 49.87492 19.40264 20895 ft 396 kts 174°
2026-04-28 15:37 49.84794 19.40951 21410 ft 400 kts 174°
2026-04-28 15:37 49.82037 19.41653 21903 ft 403 kts 174°
2026-04-28 15:37 49.79250 19.42361 22389 ft 407 kts 174°
2026-04-28 15:38 49.76445 19.43074 22841 ft 410 kts 174°
2026-04-28 15:38 49.73620 19.43792 23288 ft 413 kts 174°
2026-04-28 15:38 49.70773 19.44515 23716 ft 416 kts 174°
2026-04-28 15:38 49.67900 19.45242 24063 ft 419 kts 175°
2026-04-28 15:39 49.65015 19.45969 24448 ft 421 kts 175°
2026-04-28 15:39 49.62116 19.46698 24825 ft 423 kts 175°
2026-04-28 15:39 49.59197 19.47139 25193 ft 422 kts 181°
2026-04-28 15:39 49.56254 19.47421 25580 ft 425 kts 181°
2026-04-28 15:40 49.53297 19.47702 25956 ft 427 kts 181°
2026-04-28 15:40 49.50325 19.47984 26335 ft 429 kts 182°
2026-04-28 15:40 49.47332 19.48268 26694 ft 432 kts 182°
2026-04-28 15:40 49.44326 19.48557 27068 ft 434 kts 182°
2026-04-28 15:41 49.41308 19.48845 27469 ft 436 kts 182°
2026-04-28 15:41 49.38266 19.49131 27850 ft 438 kts 182°
2026-04-28 15:41 49.35219 19.49414 28227 ft 440 kts 182°
2026-04-28 15:41 49.32151 19.49700 28588 ft 443 kts 182°
2026-04-28 15:42 49.29101 19.49985 28898 ft 446 kts 182°
2026-04-28 15:42 49.25991 19.50282 29252 ft 449 kts 182°
2026-04-28 15:42 49.22858 19.50584 29617 ft 452 kts 182°
2026-04-28 15:42 49.19721 19.50887 29928 ft 454 kts 182°
2026-04-28 15:43 49.16562 19.51189 30270 ft 456 kts 183°
2026-04-28 15:43 49.13385 19.51488 30535 ft 458 kts 183°
2026-04-28 15:43 49.10197 19.51786 30826 ft 460 kts 183°
2026-04-28 15:43 49.06994 19.52083 31123 ft 462 kts 183°
2026-04-28 15:44 49.03772 19.52381 31422 ft 463 kts 183°
2026-04-28 15:44 49.00558 19.52681 31812 ft 463 kts 183°
2026-04-28 15:44 48.97355 19.52985 32200 ft 461 kts 183°
2026-04-28 15:44 48.94159 19.53293 32696 ft 459 kts 183°
2026-04-28 15:45 48.90976 19.53597 33106 ft 457 kts 184°
2026-04-28 15:45 48.87847 19.53892 33487 ft 456 kts 184°
2026-04-28 15:45 48.84648 19.54192 33906 ft 454 kts 184°
2026-04-28 15:45 48.81534 19.54483 34287 ft 453 kts 184°
2026-04-28 15:46 48.78387 19.54776 34607 ft 452 kts 183°
2026-04-28 15:46 48.75242 19.55071 34879 ft 452 kts 184°
2026-04-28 15:46 48.72094 19.55363 35093 ft 453 kts 183°
2026-04-28 15:46 48.68961 19.55654 35157 ft 446 kts 184°
2026-04-28 15:47 48.62842 19.56225 35165 ft 438 kts 184°
2026-04-28 15:47 48.56768 19.56781 35165 ft 437 kts 184°
2026-04-28 15:48 48.50704 19.57330 35128 ft 436 kts 184°
2026-04-28 15:48 48.44631 19.57887 35175 ft 437 kts 184°
2026-04-28 15:49 48.38554 19.58439 35163 ft 437 kts 184°
2026-04-28 15:49 48.32524 19.58993 35173 ft 437 kts 184°
2026-04-28 15:50 48.26453 19.59549 35140 ft 437 kts 184°
2026-04-28 15:50 48.20390 19.60713 35160 ft 445 kts 174°
2026-04-28 15:51 48.14335 19.62700 35169 ft 445 kts 174°
2026-04-28 15:51 48.08279 19.64680 35174 ft 446 kts 174°
2026-04-28 15:52 48.02212 19.66653 35133 ft 446 kts 175°
2026-04-28 15:52 47.96154 19.68614 35145 ft 446 kts 175°
2026-04-28 15:53 47.90085 19.70575 35151 ft 446 kts 175°
2026-04-28 15:53 47.84014 19.72530 35163 ft 447 kts 175°
2026-04-28 15:54 47.77924 19.74203 35164 ft 444 kts 179°
2026-04-28 15:54 47.71789 19.75485 35182 ft 445 kts 180°
2026-04-28 15:55 47.65655 19.76748 35183 ft 445 kts 179°
2026-04-28 15:55 47.59515 19.78112 35185 ft 446 kts 179°
2026-04-28 15:56 47.53403 19.79499 35195 ft 450 kts 179°
2026-04-28 15:56 47.47103 19.80898 35185 ft 464 kts 179°
2026-04-28 15:57 47.40682 19.82339 35187 ft 468 kts 179°
2026-04-28 15:57 47.34241 19.83792 35183 ft 468 kts 179°
2026-04-28 15:58 47.27784 19.85235 35190 ft 470 kts 179°
2026-04-28 15:58 47.21322 19.86658 35183 ft 470 kts 179°
2026-04-28 15:59 47.15939 19.87847 35183 ft 470 kts 179°
2026-04-28 15:59 47.08380 19.89517 35183 ft 470 kts 179°
2026-04-28 16:00 47.01914 19.90937 35180 ft 470 kts 179°
2026-04-28 16:00 46.95487 19.92338 35179 ft 469 kts 179°
2026-04-28 16:01 46.89024 19.93748 35161 ft 470 kts 179°
2026-04-28 16:01 46.82561 19.95156 35163 ft 470 kts 179°
2026-04-28 16:02 46.76090 19.96571 35166 ft 470 kts 179°
2026-04-28 16:02 46.69616 19.97991 35169 ft 470 kts 179°
2026-04-28 16:03 46.63141 19.99392 35141 ft 470 kts 179°
2026-04-28 16:03 46.56664 20.00779 35151 ft 471 kts 179°
2026-04-28 16:04 46.50178 20.02173 35160 ft 471 kts 178°
2026-04-28 16:04 46.43690 20.03580 35140 ft 471 kts 178°
2026-04-28 16:05 46.37240 20.04965 35151 ft 472 kts 178°
2026-04-28 16:05 46.30748 20.06356 35159 ft 472 kts 178°
2026-04-28 16:06 46.24251 20.07752 35162 ft 472 kts 178°
2026-04-28 16:06 46.17751 20.09213 35139 ft 475 kts 173°
2026-04-28 16:07 46.14569 20.10616 35144 ft 483 kts 162°
2026-04-28 16:07 46.11484 20.12590 35151 ft 485 kts 160°
2026-04-28 16:08 46.02253 20.18580 35158 ft 485 kts 161°
2026-04-28 16:08 45.96084 20.22540 35142 ft 485 kts 160°
2026-04-28 16:09 45.86883 20.28444 35146 ft 485 kts 160°
2026-04-28 16:10 45.77650 20.34374 35160 ft 484 kts 160°
2026-04-28 16:10 45.68420 20.40270 35160 ft 484 kts 160°
2026-04-28 16:11 45.56102 20.48090 35163 ft 484 kts 160°
2026-04-28 16:12 45.46861 20.53929 35146 ft 484 kts 160°
2026-04-28 16:13 45.37679 20.59732 35167 ft 483 kts 160°
2026-04-28 16:14 45.25377 20.67454 35146 ft 482 kts 160°
2026-04-28 16:15 45.13098 20.75127 35160 ft 481 kts 160°
2026-04-28 16:15 45.07012 20.78914 35164 ft 481 kts 160°
2026-04-28 16:16 44.97826 20.84626 35147 ft 480 kts 160°
2026-04-28 16:17 44.88653 20.90283 35153 ft 479 kts 160°
2026-04-28 16:17 44.82534 20.94059 35152 ft 479 kts 160°
2026-04-28 16:18 44.76425 20.97827 35153 ft 479 kts 160°
2026-04-28 16:18 44.70351 21.01550 35152 ft 479 kts 160°
2026-04-28 16:19 44.64232 21.05291 35145 ft 479 kts 160°
2026-04-28 16:19 44.58132 21.09036 35120 ft 478 kts 160°
2026-04-28 16:20 44.52032 21.12768 35126 ft 478 kts 160°
2026-04-28 16:20 44.45928 21.16476 35140 ft 478 kts 161°
2026-04-28 16:21 44.40848 21.19552 35139 ft 478 kts 161°
2026-04-28 16:21 44.34742 21.23244 35116 ft 478 kts 160°
2026-04-28 16:22 44.28609 21.26779 35128 ft 476 kts 163°
2026-04-28 16:22 44.22391 21.29913 35142 ft 474 kts 165°
2026-04-28 16:23 44.16164 21.32944 35130 ft 474 kts 165°
2026-04-28 16:23 44.09953 21.36053 35121 ft 474 kts 164°
2026-04-28 16:24 44.03766 21.39221 35125 ft 473 kts 164°
2026-04-28 16:24 43.97594 21.42372 35126 ft 472 kts 164°
2026-04-28 16:25 43.91452 21.45477 35128 ft 472 kts 164°
2026-04-28 16:25 43.85284 21.48575 35117 ft 471 kts 164°
2026-04-28 16:26 43.79119 21.51669 35116 ft 471 kts 163°
2026-04-28 16:26 43.72961 21.54761 35113 ft 470 kts 163°
2026-04-28 16:27 43.66812 21.57846 35102 ft 470 kts 163°
2026-04-28 16:28 43.57629 21.62441 35121 ft 469 kts 163°
2026-04-28 16:28 43.51482 21.65496 35116 ft 469 kts 163°
2026-04-28 16:29 43.42268 21.70068 35108 ft 469 kts 163°
2026-04-28 16:30 43.33061 21.74635 35113 ft 469 kts 163°
2026-04-28 16:30 43.26915 21.77667 35110 ft 469 kts 163°
2026-04-28 16:31 43.20784 21.80682 35108 ft 468 kts 163°
2026-04-28 16:31 43.14657 21.83694 35116 ft 468 kts 163°
2026-04-28 16:32 43.08529 21.86701 35122 ft 468 kts 163°
2026-04-28 16:32 42.99331 21.91202 35360 ft 467 kts 163°
2026-04-28 16:33 42.96271 21.92701 35688 ft 467 kts 163°
2026-04-28 16:33 42.94245 21.93692 35897 ft 466 kts 163°
2026-04-28 16:33 42.90196 21.95669 36304 ft 466 kts 163°
2026-04-28 16:33 42.87139 21.97159 36596 ft 466 kts 163°
2026-04-28 16:34 42.84091 21.98638 36893 ft 465 kts 163°
2026-04-28 16:34 42.81036 22.00112 37089 ft 466 kts 163°
2026-04-28 16:34 42.74932 22.03068 37110 ft 465 kts 163°
2026-04-28 16:35 42.68829 22.06038 37108 ft 464 kts 163°
2026-04-28 16:35 42.62745 22.08977 37108 ft 464 kts 163°
2026-04-28 16:36 42.56648 22.11893 37107 ft 464 kts 164°
2026-04-28 16:36 42.50614 22.14794 37111 ft 463 kts 163°
2026-04-28 16:37 42.44537 22.17719 37102 ft 464 kts 163°
2026-04-28 16:38 42.35419 22.22104 37095 ft 463 kts 163°
2026-04-28 16:38 42.29275 22.24659 37102 ft 458 kts 174°
2026-04-28 16:39 42.22984 22.26123 37100 ft 458 kts 174°
2026-04-28 16:39 42.16733 22.27592 37088 ft 458 kts 173°
2026-04-28 16:40 42.10446 22.29082 37097 ft 459 kts 173°
2026-04-28 16:40 42.04161 22.30561 37098 ft 458 kts 173°
2026-04-28 16:41 41.97882 22.32030 37089 ft 458 kts 173°
2026-04-28 16:41 41.91602 22.33503 37093 ft 458 kts 173°
2026-04-28 16:42 41.85324 22.34978 37095 ft 458 kts 173°
2026-04-28 16:42 41.79046 22.36441 37080 ft 458 kts 173°
2026-04-28 16:43 41.72770 22.37904 37082 ft 458 kts 173°
2026-04-28 16:43 41.66490 22.39359 37082 ft 458 kts 173°
2026-04-28 16:44 41.60217 22.40807 37084 ft 458 kts 173°
2026-04-28 16:44 41.53919 22.42258 37077 ft 468 kts 173°
2026-04-28 16:45 41.47457 22.43745 37098 ft 473 kts 173°
2026-04-28 16:45 41.40953 22.45245 37095 ft 474 kts 173°
2026-04-28 16:46 41.34453 22.46736 37096 ft 475 kts 173°
2026-04-28 16:46 41.27932 22.48234 37096 ft 476 kts 173°
2026-04-28 16:47 41.21403 22.49741 37105 ft 476 kts 173°
2026-04-28 16:47 41.14869 22.51286 37109 ft 478 kts 168°
2026-04-28 16:48 41.08708 22.54653 37112 ft 482 kts 153°
2026-04-28 16:48 41.02843 22.58844 37116 ft 482 kts 153°
2026-04-28 16:49 40.96934 22.63038 37124 ft 482 kts 153°
2026-04-28 16:49 40.91014 22.67231 37108 ft 482 kts 153°
2026-04-28 16:50 40.85105 22.71420 37116 ft 482 kts 153°
2026-04-28 16:50 40.79188 22.75603 37123 ft 482 kts 153°
2026-04-28 16:51 40.73274 22.79769 37132 ft 482 kts 153°
2026-04-28 16:51 40.67342 22.83940 37130 ft 482 kts 153°
2026-04-28 16:52 40.61420 22.88092 37133 ft 482 kts 153°
2026-04-28 16:52 40.55533 22.92214 37133 ft 482 kts 153°
2026-04-28 16:53 40.49613 22.96352 37139 ft 482 kts 153°
2026-04-28 16:53 40.43581 23.00168 37138 ft 480 kts 161°
2026-04-28 16:54 40.37341 23.03283 37137 ft 480 kts 161°
2026-04-28 16:54 40.31095 23.06379 37143 ft 480 kts 161°
2026-04-28 16:55 40.24839 23.09474 37142 ft 480 kts 161°
2026-04-28 16:55 40.18591 23.12571 37153 ft 480 kts 161°
2026-04-28 16:56 40.12338 23.15672 37155 ft 480 kts 161°
2026-04-28 16:56 40.06092 23.18754 37152 ft 480 kts 161°
2026-04-28 16:57 39.99886 23.21809 37144 ft 480 kts 161°
2026-04-28 16:57 39.93647 23.24877 37154 ft 479 kts 161°
2026-04-28 16:58 39.87402 23.27943 37154 ft 479 kts 161°
2026-04-28 16:58 39.81169 23.30998 37155 ft 479 kts 161°
2026-04-28 16:59 39.74942 23.34043 37148 ft 478 kts 161°
2026-04-28 16:59 39.68714 23.37083 37155 ft 478 kts 161°
2026-04-28 17:00 39.62489 23.40114 37156 ft 478 kts 161°
2026-04-28 17:00 39.56262 23.43144 37162 ft 477 kts 161°
2026-04-28 17:01 39.50045 23.46163 37151 ft 477 kts 161°
2026-04-28 17:01 39.43828 23.49168 37152 ft 477 kts 161°
2026-04-28 17:02 39.37615 23.52163 37151 ft 477 kts 161°
2026-04-28 17:02 39.31442 23.55153 37148 ft 476 kts 161°
2026-04-28 17:03 39.22130 23.59650 37145 ft 476 kts 161°
2026-04-28 17:03 39.15901 23.62604 37149 ft 476 kts 162°
2026-04-28 17:04 39.06475 23.66640 37139 ft 476 kts 163°
2026-04-28 17:05 38.97025 23.70597 37146 ft 477 kts 163°
2026-04-28 17:06 38.87584 23.74652 37150 ft 477 kts 163°
2026-04-28 17:06 38.78170 23.78678 37134 ft 478 kts 163°
2026-04-28 17:07 38.71859 23.81356 37134 ft 478 kts 163°
2026-04-28 17:07 38.65540 23.84039 37132 ft 478 kts 163°
2026-04-28 17:08 38.59218 23.86717 37130 ft 478 kts 163°
2026-04-28 17:08 38.52891 23.89389 37131 ft 479 kts 163°
2026-04-28 17:09 38.46568 23.92053 37127 ft 479 kts 163°
2026-04-28 17:09 38.40244 23.94725 37131 ft 479 kts 163°
2026-04-28 17:10 38.34981 23.96940 37117 ft 479 kts 163°
2026-04-28 17:10 38.28650 23.99591 37120 ft 479 kts 163°
2026-04-28 17:11 38.22322 24.02252 37122 ft 479 kts 163°
2026-04-28 17:11 38.16030 24.04886 37123 ft 479 kts 163°
2026-04-28 17:12 38.09655 24.07541 37129 ft 479 kts 164°
2026-04-28 17:12 38.03361 24.10162 37123 ft 479 kts 163°
2026-04-28 17:13 37.97033 24.12801 37115 ft 479 kts 163°
2026-04-28 17:13 37.90686 24.15441 37114 ft 479 kts 164°
2026-04-28 17:14 37.84343 24.18067 37102 ft 480 kts 164°
2026-04-28 17:14 37.77996 24.20686 37098 ft 480 kts 164°
2026-04-28 17:15 37.71647 24.23310 37100 ft 480 kts 164°
2026-04-28 17:15 37.65294 24.25932 37088 ft 481 kts 164°
2026-04-28 17:16 37.58931 24.28549 37091 ft 481 kts 164°
2026-04-28 17:16 37.52490 24.30763 37094 ft 479 kts 170°
2026-04-28 17:17 37.45973 24.32530 37093 ft 479 kts 170°
2026-04-28 17:17 37.39490 24.34296 37088 ft 480 kts 170°
2026-04-28 17:18 37.32967 24.36076 36738 ft 479 kts 170°
2026-04-28 17:18 37.29714 24.36964 36481 ft 479 kts 170°
2026-04-28 17:18 37.26453 24.37854 36230 ft 479 kts 170°
2026-04-28 17:19 37.23197 24.38741 35978 ft 479 kts 170°
2026-04-28 17:19 37.19944 24.39627 35731 ft 478 kts 170°
2026-04-28 17:19 37.16686 24.40518 35475 ft 478 kts 170°
2026-04-28 17:19 37.13436 24.41412 35231 ft 478 kts 170°
2026-04-28 17:20 37.10183 24.42307 34990 ft 478 kts 170°
2026-04-28 17:20 37.08028 24.42901 34833 ft 478 kts 170°
2026-04-28 17:20 37.03674 24.44094 34513 ft 478 kts 170°
2026-04-28 17:20 37.00419 24.44984 34276 ft 478 kts 170°
2026-04-28 17:21 36.97167 24.45872 34042 ft 478 kts 170°
2026-04-28 17:21 36.93915 24.46754 33752 ft 478 kts 170°
2026-04-28 17:21 36.90658 24.47636 33456 ft 479 kts 170°
2026-04-28 17:22 36.84139 24.49403 32297 ft 480 kts 170°
2026-04-28 17:22 36.80871 24.50286 31697 ft 481 kts 170°
2026-04-28 17:22 36.77595 24.51170 31093 ft 482 kts 170°
2026-04-28 17:23 36.71202 24.53647 29859 ft 487 kts 161°
2026-04-28 17:23 36.68039 24.55179 29262 ft 489 kts 161°
2026-04-28 17:23 36.64859 24.56714 28660 ft 490 kts 161°
2026-04-28 17:23 36.61707 24.58233 28060 ft 481 kts 161°
2026-04-28 17:24 36.58621 24.59719 27490 ft 472 kts 161°
2026-04-28 17:24 36.55573 24.61184 26833 ft 466 kts 161°
2026-04-28 17:24 36.52570 24.62625 26196 ft 460 kts 161°
2026-04-28 17:24 36.49584 24.64053 25890 ft 460 kts 161°
2026-04-28 17:25 36.46603 24.65476 25336 ft 457 kts 161°
2026-04-28 17:25 36.40698 24.68293 24331 ft 451 kts 161°
2026-04-28 17:25 36.37781 24.69685 23832 ft 448 kts 161°
2026-04-28 17:26 36.34885 24.71065 23274 ft 445 kts 161°
2026-04-28 17:26 36.32007 24.72438 22755 ft 441 kts 161°
2026-04-28 17:26 36.29147 24.73801 22245 ft 438 kts 161°
2026-04-28 17:26 36.26311 24.75149 21728 ft 434 kts 161°
2026-04-28 17:27 36.23500 24.76486 21212 ft 431 kts 161°
2026-04-28 17:27 36.20714 24.77810 20679 ft 427 kts 161°
2026-04-28 17:27 36.17950 24.79122 20167 ft 424 kts 161°
2026-04-28 17:27 36.15203 24.80426 19646 ft 420 kts 160°
2026-04-28 17:28 36.12514 24.81703 19139 ft 417 kts 160°
2026-04-28 17:28 36.07136 24.84256 18093 ft 411 kts 160°
2026-04-28 17:28 36.04474 24.85513 17589 ft 407 kts 160°
2026-04-28 17:29 36.01840 24.86756 17099 ft 404 kts 160°
2026-04-28 17:29 35.99229 24.87988 16625 ft 400 kts 160°
2026-04-28 17:29 35.96636 24.89211 16140 ft 396 kts 160°
2026-04-28 17:30 35.91527 24.91626 15210 ft 390 kts 160°
2026-04-28 17:30 35.86510 24.94002 14289 ft 383 kts 160°
2026-04-28 17:30 35.84034 24.95172 13816 ft 380 kts 160°
2026-04-28 17:31 35.81577 24.96332 13327 ft 377 kts 160°
2026-04-28 17:31 35.76704 24.98613 12380 ft 372 kts 159°
2026-04-28 17:32 35.71920 25.00930 11482 ft 364 kts 153°
2026-04-28 17:32 35.69844 25.02575 11315 ft 346 kts 143°
2026-04-28 17:32 35.67948 25.04290 11202 ft 329 kts 143°
2026-04-28 17:32 35.66141 25.05916 11074 ft 314 kts 143°
2026-04-28 17:33 35.64407 25.07472 10632 ft 303 kts 143°
2026-04-28 17:33 35.62735 25.08970 10203 ft 300 kts 143°
2026-04-28 17:33 35.61045 25.10491 9621 ft 301 kts 142°
2026-04-28 17:33 35.59910 25.11514 9068 ft 299 kts 142°
2026-04-28 17:34 35.57704 25.13496 8221 ft 292 kts 142°
2026-04-28 17:34 35.56120 25.14912 7827 ft 273 kts 142°
2026-04-28 17:34 35.54624 25.16250 7408 ft 259 kts 142°
2026-04-28 17:34 35.53179 25.17546 6895 ft 262 kts 142°
2026-04-28 17:35 35.51691 25.18882 6517 ft 262 kts 142°
2026-04-28 17:35 35.50238 25.20183 6254 ft 257 kts 142°
2026-04-28 17:35 35.48799 25.21469 5915 ft 255 kts 142°
2026-04-28 17:35 35.47367 25.22748 5336 ft 252 kts 142°
2026-04-28 17:36 35.45937 25.24027 4573 ft 256 kts 142°
2026-04-28 17:36 35.44490 25.25320 3812 ft 259 kts 142°
2026-04-28 17:36 35.43031 25.26625 3185 ft 256 kts 142°
2026-04-28 17:36 35.41643 25.27866 2853 ft 240 kts 143°
2026-04-28 17:37 35.40330 25.29042 2448 ft 227 kts 143°
2026-04-28 17:37 35.39115 25.30133 2124 ft 211 kts 144°
2026-04-28 17:37 35.37867 25.30878 2071 ft 194 kts 168°
2026-04-28 17:37 35.36551 25.30925 2120 ft 187 kts 194°
2026-04-28 17:38 35.35380 25.30393 2014 ft 170 kts 218°
2026-04-28 17:38 35.34593 25.29485 1932 ft 146 kts 240°
2026-04-28 17:38 35.34105 25.28456 1851 ft 136 kts 253°
2026-04-28 17:38 35.33805 25.27384 1720 ft 132 kts 262°
2026-04-28 17:39 35.33577 25.26278 1492 ft 136 kts 264°
2026-04-28 17:39 35.33484 25.25145 1267 ft 133 kts 274°
2026-04-28 17:39 35.33638 25.22898 839 ft 135 kts 280°
2026-04-28 17:40 35.33730 25.21748 621 ft 136 kts 278°
2026-04-28 17:40 35.33793 25.20601 402 ft 134 kts 279°
2026-04-28 17:40 35.33874 25.19467 205 ft 133 kts 277°
2026-04-28 17:40 35.33951 25.18362 107 ft 122 kts 278°
2026-04-28 17:41 35.34009 25.17554 105 ft 66 kts 275°
2026-04-28 17:41 35.34026 25.17244 104 ft 32 kts 266°
2026-04-28 17:41 35.33978 25.17067 105 ft 12 kts 236°
2026-04-28 17:41 35.33938 25.17102 106 ft 9 kts 96°
2026-04-28 17:42 35.33934 25.17173 105 ft 8 kts 94°
2026-04-28 17:42 35.33919 25.17200 105 ft 5 kts 153°
2026-04-28 17:42 35.33873 25.17190 105 ft 3 kts 221°
2026-04-28 17:42 35.33872 25.17175 107 ft 2 kts 282°
2026-04-28 17:43 35.33884 25.17158 108 ft 1 kts 317°
2026-04-28 17:43 35.33887 25.17155 108 ft 1 kts 317°
2026-04-28 17:43 35.33891 25.17151 106 ft 0 kts 317°
2026-04-28 17:44 35.34014 25.17162 106 ft 18 kts 251°
2026-04-28 17:44 35.33895 25.19172 159 ft 133 kts 278°
2026-04-28 17:44 35.33945 25.18438 109 ft 124 kts 278°